Year,Month,Day,Hour,Minute,Value (Times are PST for temperature in C)
2015,07,18,00,00,17.30
2015,07,18,00,01,17.30
2015,07,18,00,02,17.30
2015,07,18,00,03,17.30
2015,07,18,00,04,17.20
2015,07,18,00,05,17.20
2015,07,18,00,06,17.20
2015,07,18,00,07,17.20
2015,07,18,00,08,17.10
2015,07,18,00,09,17.10
2015,07,18,00,10,17.10
2015,07,18,00,11,17.10
2015,07,18,00,12,17.10
2015,07,18,00,13,17.10
2015,07,18,00,14,17.00
2015,07,18,00,15,17.00
2015,07,18,00,16,17.00
2015,07,18,00,17,17.00
2015,07,18,00,18,16.90
2015,07,18,00,19,16.90
2015,07,18,00,20,16.90
2015,07,18,00,21,16.80
2015,07,18,00,22,16.80
2015,07,18,00,23,16.80
2015,07,18,00,24,16.70
2015,07,18,00,25,16.70
2015,07,18,00,26,16.70
2015,07,18,00,27,16.70
2015,07,18,00,28,16.70
2015,07,18,00,29,16.70
2015,07,18,00,30,16.70
2015,07,18,00,31,16.70
2015,07,18,00,32,16.70
2015,07,18,00,33,16.70
2015,07,18,00,34,16.70
2015,07,18,00,35,16.70
2015,07,18,00,36,16.70
2015,07,18,00,37,16.70
2015,07,18,00,38,16.70
2015,07,18,00,39,16.70
2015,07,18,00,40,16.70
2015,07,18,00,41,16.70
2015,07,18,00,42,16.70
2015,07,18,00,43,16.60
2015,07,18,00,44,16.60
2015,07,18,00,45,16.60
2015,07,18,00,46,16.60
2015,07,18,00,47,16.60
2015,07,18,00,48,16.60
2015,07,18,00,49,16.60
2015,07,18,00,50,16.60
2015,07,18,00,51,16.70
2015,07,18,00,52,16.70
2015,07,18,00,53,16.70
2015,07,18,00,54,16.70
2015,07,18,00,55,16.70
2015,07,18,00,56,16.70
2015,07,18,00,57,16.70
2015,07,18,00,58,16.70
2015,07,18,00,59,16.70
2015,07,18,01,00,16.70
2015,07,18,01,01,16.70
2015,07,18,01,02,16.70
2015,07,18,01,03,16.70
2015,07,18,01,04,16.70
2015,07,18,01,05,16.70
2015,07,18,01,06,16.70
2015,07,18,01,07,16.60
2015,07,18,01,08,16.60
2015,07,18,01,09,16.60
2015,07,18,01,10,16.60
2015,07,18,01,11,16.60
2015,07,18,01,12,16.50
2015,07,18,01,13,16.50
2015,07,18,01,14,16.50
2015,07,18,01,15,16.50
2015,07,18,01,16,16.50
2015,07,18,01,17,16.50
2015,07,18,01,18,16.50
2015,07,18,01,19,16.50
2015,07,18,01,20,16.40
2015,07,18,01,21,16.40
2015,07,18,01,22,16.40
2015,07,18,01,23,16.40
2015,07,18,01,24,16.40
2015,07,18,01,25,16.40
2015,07,18,01,26,16.40
2015,07,18,01,27,16.40
2015,07,18,01,28,16.40
2015,07,18,01,29,16.40
2015,07,18,01,30,16.40
2015,07,18,01,31,16.40
2015,07,18,01,32,16.30
2015,07,18,01,33,16.40
2015,07,18,01,34,16.30
2015,07,18,01,35,16.30
2015,07,18,01,36,16.30
2015,07,18,01,37,16.30
2015,07,18,01,38,16.30
2015,07,18,01,39,16.30
2015,07,18,01,40,16.30
2015,07,18,01,41,16.30
2015,07,18,01,42,16.20
2015,07,18,01,43,16.20
2015,07,18,01,44,16.20
2015,07,18,01,45,16.20
2015,07,18,01,46,16.20
2015,07,18,01,47,16.20
2015,07,18,01,48,16.20
2015,07,18,01,49,16.10
2015,07,18,01,50,16.10
2015,07,18,01,51,16.10
2015,07,18,01,52,16.10
2015,07,18,01,53,16.10
2015,07,18,01,54,16.10
2015,07,18,01,55,16.10
2015,07,18,01,56,16.10
2015,07,18,01,57,16.10
2015,07,18,01,58,16.10
2015,07,18,01,59,16.10
2015,07,18,02,00,16.00
2015,07,18,02,01,16.00
2015,07,18,02,02,16.00
2015,07,18,02,03,16.00
2015,07,18,02,04,16.00
2015,07,18,02,05,16.00
2015,07,18,02,06,15.90
2015,07,18,02,07,15.90
2015,07,18,02,08,15.90
2015,07,18,02,09,15.90
2015,07,18,02,10,15.90
2015,07,18,02,11,15.90
2015,07,18,02,12,15.90
2015,07,18,02,13,15.90
2015,07,18,02,14,15.90
2015,07,18,02,15,15.80
2015,07,18,02,16,15.80
2015,07,18,02,17,15.80
2015,07,18,02,18,15.80
2015,07,18,02,19,15.80
2015,07,18,02,20,15.80
2015,07,18,02,21,15.70
2015,07,18,02,22,15.70
2015,07,18,02,23,15.70
2015,07,18,02,24,15.70
2015,07,18,02,25,15.70
2015,07,18,02,26,15.70
2015,07,18,02,27,15.70
2015,07,18,02,28,15.80
2015,07,18,02,29,15.80
2015,07,18,02,30,15.90
2015,07,18,02,31,16.00
2015,07,18,02,32,16.10
2015,07,18,02,33,16.10
2015,07,18,02,34,16.10
2015,07,18,02,35,16.20
2015,07,18,02,36,16.20
2015,07,18,02,37,16.20
2015,07,18,02,38,16.30
2015,07,18,02,39,16.30
2015,07,18,02,40,16.30
2015,07,18,02,41,16.30
2015,07,18,02,42,16.30
2015,07,18,02,43,16.30
2015,07,18,02,44,16.30
2015,07,18,02,45,16.30
2015,07,18,02,46,16.30
2015,07,18,02,47,16.30
2015,07,18,02,48,16.30
2015,07,18,02,49,16.40
2015,07,18,02,50,16.40
2015,07,18,02,51,16.40
2015,07,18,02,52,16.40
2015,07,18,02,53,16.40
2015,07,18,02,54,16.40
2015,07,18,02,55,16.40
2015,07,18,02,56,16.40
2015,07,18,02,57,16.40
2015,07,18,02,58,16.40
2015,07,18,02,59,16.40
2015,07,18,03,00,16.40
2015,07,18,03,01,16.30
2015,07,18,03,02,16.30
2015,07,18,03,03,16.30
2015,07,18,03,04,16.30
2015,07,18,03,05,16.30
2015,07,18,03,06,16.20
2015,07,18,03,07,16.20
2015,07,18,03,08,16.20
2015,07,18,03,09,16.20
2015,07,18,03,10,16.10
2015,07,18,03,11,16.10
2015,07,18,03,12,16.00
2015,07,18,03,13,16.00
2015,07,18,03,14,15.90
2015,07,18,03,15,15.90
2015,07,18,03,16,15.90
2015,07,18,03,17,15.80
2015,07,18,03,18,15.80
2015,07,18,03,19,15.80
2015,07,18,03,20,15.80
2015,07,18,03,21,15.80
2015,07,18,03,22,15.70
2015,07,18,03,23,15.70
2015,07,18,03,24,15.70
2015,07,18,03,25,15.70
2015,07,18,03,26,15.70
2015,07,18,03,27,15.70
2015,07,18,03,28,15.70
2015,07,18,03,29,15.70
2015,07,18,03,30,15.60
2015,07,18,03,31,15.60
2015,07,18,03,32,15.60
2015,07,18,03,33,15.60
2015,07,18,03,34,15.60
2015,07,18,03,35,15.60
2015,07,18,03,36,15.60
2015,07,18,03,37,15.60
2015,07,18,03,38,15.60
2015,07,18,03,39,15.60
2015,07,18,03,40,15.60
2015,07,18,03,41,15.50
2015,07,18,03,42,15.50
2015,07,18,03,43,15.50
2015,07,18,03,44,15.50
2015,07,18,03,45,15.50
2015,07,18,03,46,15.50
2015,07,18,03,47,15.50
2015,07,18,03,48,15.40
2015,07,18,03,49,15.40
2015,07,18,03,50,15.40
2015,07,18,03,51,15.40
2015,07,18,03,52,15.40
2015,07,18,03,53,15.40
2015,07,18,03,54,15.40
2015,07,18,03,55,15.40
2015,07,18,03,56,15.40
2015,07,18,03,57,15.40
2015,07,18,03,58,15.50
2015,07,18,03,59,15.40
2015,07,18,04,00,15.40
2015,07,18,04,01,15.40
2015,07,18,04,02,15.40
2015,07,18,04,03,15.40
2015,07,18,04,04,15.40
2015,07,18,04,05,15.40
2015,07,18,04,06,15.40
2015,07,18,04,07,15.40
2015,07,18,04,08,15.40
2015,07,18,04,09,15.40
2015,07,18,04,10,15.40
2015,07,18,04,11,15.40
2015,07,18,04,12,15.40
2015,07,18,04,13,15.40
2015,07,18,04,14,15.40
2015,07,18,04,15,15.50
2015,07,18,04,16,15.50
2015,07,18,04,17,15.60
2015,07,18,04,18,15.60
2015,07,18,04,19,15.70
2015,07,18,04,20,15.80
2015,07,18,04,21,15.80
2015,07,18,04,22,15.90
2015,07,18,04,23,15.90
2015,07,18,04,24,16.00
2015,07,18,04,25,16.00
2015,07,18,04,26,16.10
2015,07,18,04,27,16.10
2015,07,18,04,28,16.20
2015,07,18,04,29,16.20
2015,07,18,04,30,16.30
2015,07,18,04,31,16.30
2015,07,18,04,32,16.40
2015,07,18,04,33,16.40
2015,07,18,04,34,16.40
2015,07,18,04,35,16.50
2015,07,18,04,36,16.50
2015,07,18,04,37,16.50
2015,07,18,04,38,16.60
2015,07,18,04,39,16.60
2015,07,18,04,40,16.60
2015,07,18,04,41,16.50
2015,07,18,04,42,16.50
2015,07,18,04,43,16.50
2015,07,18,04,44,16.40
2015,07,18,04,45,16.40
2015,07,18,04,46,16.30
2015,07,18,04,47,16.30
2015,07,18,04,48,16.30
2015,07,18,04,49,16.20
2015,07,18,04,50,16.20
2015,07,18,04,51,16.20
2015,07,18,04,52,16.30
2015,07,18,04,53,16.30
2015,07,18,04,54,16.40
2015,07,18,04,55,16.50
2015,07,18,04,56,16.60
2015,07,18,04,57,16.70
2015,07,18,04,58,16.80
2015,07,18,04,59,16.90
2015,07,18,05,00,16.90
2015,07,18,05,01,16.90
2015,07,18,05,02,16.90
2015,07,18,05,03,17.00
2015,07,18,05,04,17.00
2015,07,18,05,05,17.00
2015,07,18,05,06,17.10
2015,07,18,05,07,17.10
2015,07,18,05,08,17.10
2015,07,18,05,09,17.10
2015,07,18,05,10,17.20
2015,07,18,05,11,17.20
2015,07,18,05,12,17.20
2015,07,18,05,13,17.20
2015,07,18,05,14,17.20
2015,07,18,05,15,17.20
2015,07,18,05,16,17.20
2015,07,18,05,17,17.20
2015,07,18,05,18,17.20
2015,07,18,05,19,17.30
2015,07,18,05,20,17.30
2015,07,18,05,21,17.30
2015,07,18,05,22,17.30
2015,07,18,05,23,17.30
2015,07,18,05,24,17.30
2015,07,18,05,25,17.20
2015,07,18,05,26,17.20
2015,07,18,05,27,17.20
2015,07,18,05,28,17.20
2015,07,18,05,29,17.20
2015,07,18,05,30,17.20
2015,07,18,05,31,17.20
2015,07,18,05,32,17.10
2015,07,18,05,33,17.10
2015,07,18,05,34,17.10
2015,07,18,05,35,17.10
2015,07,18,05,36,17.10
2015,07,18,05,37,17.10
2015,07,18,05,38,17.00
2015,07,18,05,39,17.00
2015,07,18,05,40,16.90
2015,07,18,05,41,16.90
2015,07,18,05,42,16.90
2015,07,18,05,43,16.90
2015,07,18,05,44,16.90
2015,07,18,05,45,16.80
2015,07,18,05,46,16.80
2015,07,18,05,47,16.80
2015,07,18,05,48,16.80
2015,07,18,05,49,16.80
2015,07,18,05,50,16.80
2015,07,18,05,51,16.80
2015,07,18,05,52,16.80
2015,07,18,05,53,16.80
2015,07,18,05,54,16.80
2015,07,18,05,55,16.80
2015,07,18,05,56,16.80
2015,07,18,05,57,16.80
2015,07,18,05,58,16.80
2015,07,18,05,59,16.90
2015,07,18,06,00,16.90
2015,07,18,06,01,16.90
2015,07,18,06,02,16.90
2015,07,18,06,03,16.90
2015,07,18,06,04,16.90
2015,07,18,06,05,16.90
2015,07,18,06,06,16.80
2015,07,18,06,07,16.80
2015,07,18,06,08,16.80
2015,07,18,06,09,16.80
2015,07,18,06,10,16.80
2015,07,18,06,11,16.80
2015,07,18,06,12,16.70
2015,07,18,06,13,16.70
2015,07,18,06,14,16.70
2015,07,18,06,15,16.60
2015,07,18,06,16,16.60
2015,07,18,06,17,16.60
2015,07,18,06,18,16.60
2015,07,18,06,19,16.50
2015,07,18,06,20,16.50
2015,07,18,06,21,16.40
2015,07,18,06,22,16.40
2015,07,18,06,23,16.40
2015,07,18,06,24,16.30
2015,07,18,06,25,16.30
2015,07,18,06,26,16.30
2015,07,18,06,27,16.30
2015,07,18,06,28,16.30
2015,07,18,06,29,16.20
2015,07,18,06,30,16.20
2015,07,18,06,31,16.20
2015,07,18,06,32,16.20
2015,07,18,06,33,16.20
2015,07,18,06,34,16.20
2015,07,18,06,35,16.20
2015,07,18,06,36,16.30
2015,07,18,06,37,16.40
2015,07,18,06,38,16.50
2015,07,18,06,39,16.60
2015,07,18,06,40,16.70
2015,07,18,06,41,16.80
2015,07,18,06,42,16.90
2015,07,18,06,43,16.90
2015,07,18,06,44,17.00
2015,07,18,06,45,17.00
2015,07,18,06,46,17.10
2015,07,18,06,47,17.10
2015,07,18,06,48,17.10
2015,07,18,06,49,17.20
2015,07,18,06,50,17.20
2015,07,18,06,51,17.20
2015,07,18,06,52,17.30
2015,07,18,06,53,17.30
2015,07,18,06,54,17.40
2015,07,18,06,55,17.40
2015,07,18,06,56,17.50
2015,07,18,06,57,17.50
2015,07,18,06,58,17.50
2015,07,18,06,59,17.60
2015,07,18,07,00,17.60
2015,07,18,07,01,17.60
2015,07,18,07,02,17.70
2015,07,18,07,03,17.70
2015,07,18,07,04,17.70
2015,07,18,07,05,17.80
2015,07,18,07,06,17.80
2015,07,18,07,07,17.80
2015,07,18,07,08,17.80
2015,07,18,07,09,17.80
2015,07,18,07,10,17.80
2015,07,18,07,11,17.80
2015,07,18,07,12,17.80
2015,07,18,07,13,17.80
2015,07,18,07,14,17.80
2015,07,18,07,15,17.90
2015,07,18,07,16,17.90
2015,07,18,07,17,17.90
2015,07,18,07,18,18.00
2015,07,18,07,19,18.00
2015,07,18,07,20,18.10
2015,07,18,07,21,18.20
2015,07,18,07,22,18.20
2015,07,18,07,23,18.30
2015,07,18,07,24,18.30
2015,07,18,07,25,18.40
2015,07,18,07,26,18.50
2015,07,18,07,27,18.60
2015,07,18,07,28,18.60
2015,07,18,07,29,18.70
2015,07,18,07,30,18.80
2015,07,18,07,31,18.80
2015,07,18,07,32,18.90
2015,07,18,07,33,19.00
2015,07,18,07,34,19.10
2015,07,18,07,35,19.10
2015,07,18,07,36,19.20
2015,07,18,07,37,19.20
2015,07,18,07,38,19.30
2015,07,18,07,39,19.30
2015,07,18,07,40,19.30
2015,07,18,07,41,19.30
2015,07,18,07,42,19.30
2015,07,18,07,43,19.30
2015,07,18,07,44,19.30
2015,07,18,07,45,19.40
2015,07,18,07,46,19.40
2015,07,18,07,47,19.40
2015,07,18,07,48,19.40
2015,07,18,07,49,19.40
2015,07,18,07,50,19.40
2015,07,18,07,51,19.50
2015,07,18,07,52,19.50
2015,07,18,07,53,19.50
2015,07,18,07,54,19.50
2015,07,18,07,55,19.50
2015,07,18,07,56,19.50
2015,07,18,07,57,19.50
2015,07,18,07,58,19.50
2015,07,18,07,59,19.50
2015,07,18,08,00,19.50
2015,07,18,08,01,19.50
2015,07,18,08,02,19.50
2015,07,18,08,03,19.60
2015,07,18,08,04,19.60
2015,07,18,08,05,19.60
2015,07,18,08,06,19.60
2015,07,18,08,07,19.70
2015,07,18,08,08,19.80
2015,07,18,08,09,19.70
2015,07,18,08,10,19.70
2015,07,18,08,11,19.70
2015,07,18,08,12,19.70
2015,07,18,08,13,19.80
2015,07,18,08,14,19.80
2015,07,18,08,15,19.80
2015,07,18,08,16,19.90
2015,07,18,08,17,19.90
2015,07,18,08,18,19.90
2015,07,18,08,19,19.90
2015,07,18,08,20,20.00
2015,07,18,08,21,20.00
2015,07,18,08,22,20.00
2015,07,18,08,23,19.90
2015,07,18,08,24,19.90
2015,07,18,08,25,19.90
2015,07,18,08,26,19.90
2015,07,18,08,27,19.90
2015,07,18,08,28,19.90
2015,07,18,08,29,20.00
2015,07,18,08,30,20.00
2015,07,18,08,31,20.10
2015,07,18,08,32,20.10
2015,07,18,08,33,20.20
2015,07,18,08,34,20.20
2015,07,18,08,35,20.30
2015,07,18,08,36,20.40
2015,07,18,08,37,20.40
2015,07,18,08,38,20.50
2015,07,18,08,39,20.50
2015,07,18,08,40,20.50
2015,07,18,08,41,20.50
2015,07,18,08,42,20.50
2015,07,18,08,43,20.50
2015,07,18,08,44,20.50
2015,07,18,08,45,20.40
2015,07,18,08,46,20.50
2015,07,18,08,47,20.60
2015,07,18,08,48,20.70
2015,07,18,08,49,20.80
2015,07,18,08,50,20.80
2015,07,18,08,51,20.90
2015,07,18,08,52,21.00
2015,07,18,08,53,21.10
2015,07,18,08,54,21.10
2015,07,18,08,55,21.20
2015,07,18,08,56,21.20
2015,07,18,08,57,21.30
2015,07,18,08,58,21.40
2015,07,18,08,59,21.50
2015,07,18,09,00,21.50
2015,07,18,09,01,21.60
2015,07,18,09,02,21.60
2015,07,18,09,03,21.70
2015,07,18,09,04,21.70
2015,07,18,09,05,21.70
2015,07,18,09,06,21.80
2015,07,18,09,07,21.80
2015,07,18,09,08,21.80
2015,07,18,09,09,21.80
2015,07,18,09,10,21.90
2015,07,18,09,11,21.90
2015,07,18,09,12,22.00
2015,07,18,09,13,22.10
2015,07,18,09,14,22.00
2015,07,18,09,15,22.00
2015,07,18,09,16,22.00
2015,07,18,09,17,22.00
2015,07,18,09,18,22.00
2015,07,18,09,19,22.10
2015,07,18,09,20,22.10
2015,07,18,09,21,22.10
2015,07,18,09,22,22.10
2015,07,18,09,23,22.10
2015,07,18,09,24,22.10
2015,07,18,09,25,22.10
2015,07,18,09,26,22.10
2015,07,18,09,27,22.10
2015,07,18,09,28,22.10
2015,07,18,09,29,22.10
2015,07,18,09,30,22.10
2015,07,18,09,31,22.10
2015,07,18,09,32,22.10
2015,07,18,09,33,22.10
2015,07,18,09,34,22.10
2015,07,18,09,35,22.10
2015,07,18,09,36,22.20
2015,07,18,09,37,22.20
2015,07,18,09,38,22.30
2015,07,18,09,39,22.50
2015,07,18,09,40,22.60
2015,07,18,09,41,22.80
2015,07,18,09,42,22.90
2015,07,18,09,43,22.90
2015,07,18,09,44,22.90
2015,07,18,09,45,22.90
2015,07,18,09,46,22.90
2015,07,18,09,47,22.90
2015,07,18,09,48,23.00
2015,07,18,09,49,23.10
2015,07,18,09,50,23.10
2015,07,18,09,51,23.10
2015,07,18,09,52,23.10
2015,07,18,09,53,23.20
2015,07,18,09,54,23.10
2015,07,18,09,55,23.00
2015,07,18,09,56,23.00
2015,07,18,09,57,22.90
2015,07,18,09,58,22.90
2015,07,18,09,59,22.80
2015,07,18,10,00,22.80
2015,07,18,10,01,22.80
2015,07,18,10,02,22.80
2015,07,18,10,03,22.80
2015,07,18,10,04,22.80
2015,07,18,10,05,22.70
2015,07,18,10,06,22.60
2015,07,18,10,07,22.50
2015,07,18,10,08,22.30
2015,07,18,10,09,22.20
2015,07,18,10,10,22.10
2015,07,18,10,11,22.00
2015,07,18,10,12,21.90
2015,07,18,10,13,21.80
2015,07,18,10,14,21.70
2015,07,18,10,15,21.70
2015,07,18,10,16,21.60
2015,07,18,10,17,21.70
2015,07,18,10,18,21.70
2015,07,18,10,19,21.70
2015,07,18,10,20,21.70
2015,07,18,10,21,21.70
2015,07,18,10,22,21.70
2015,07,18,10,23,21.70
2015,07,18,10,24,21.60
2015,07,18,10,25,21.60
2015,07,18,10,26,21.50
2015,07,18,10,27,21.40
2015,07,18,10,28,21.40
2015,07,18,10,29,21.40
2015,07,18,10,30,21.40
2015,07,18,10,31,21.40
2015,07,18,10,32,21.40
2015,07,18,10,33,21.40
2015,07,18,10,34,21.50
2015,07,18,10,35,21.50
2015,07,18,10,36,21.50
2015,07,18,10,37,21.60
2015,07,18,10,38,21.60
2015,07,18,10,39,21.70
2015,07,18,10,40,21.70
2015,07,18,10,41,21.80
2015,07,18,10,42,21.80
2015,07,18,10,43,21.80
2015,07,18,10,44,21.70
2015,07,18,10,45,21.60
2015,07,18,10,46,21.70
2015,07,18,10,47,21.80
2015,07,18,10,48,21.80
2015,07,18,10,49,21.90
2015,07,18,10,50,21.90
2015,07,18,10,51,22.00
2015,07,18,10,52,21.90
2015,07,18,10,53,21.80
2015,07,18,10,54,21.70
2015,07,18,10,55,21.50
2015,07,18,10,56,21.30
2015,07,18,10,57,21.30
2015,07,18,10,58,21.20
2015,07,18,10,59,21.20
2015,07,18,11,00,21.20
2015,07,18,11,01,21.20
2015,07,18,11,02,21.20
2015,07,18,11,03,21.20
2015,07,18,11,04,21.30
2015,07,18,11,05,21.40
2015,07,18,11,06,21.50
2015,07,18,11,07,21.60
2015,07,18,11,08,21.70
2015,07,18,11,09,21.80
2015,07,18,11,10,21.80
2015,07,18,11,11,21.80
2015,07,18,11,12,21.80
2015,07,18,11,13,21.80
2015,07,18,11,14,21.80
2015,07,18,11,15,21.70
2015,07,18,11,16,21.60
2015,07,18,11,17,21.50
2015,07,18,11,18,21.40
2015,07,18,11,19,21.50
2015,07,18,11,20,21.60
2015,07,18,11,21,21.80
2015,07,18,11,22,22.00
2015,07,18,11,23,22.10
2015,07,18,11,24,22.10
2015,07,18,11,25,22.10
2015,07,18,11,26,22.20
2015,07,18,11,27,22.30
2015,07,18,11,28,22.50
2015,07,18,11,29,22.50
2015,07,18,11,30,22.60
2015,07,18,11,31,22.70
2015,07,18,11,32,22.70
2015,07,18,11,33,22.80
2015,07,18,11,34,22.90
2015,07,18,11,35,22.90
2015,07,18,11,36,23.00
2015,07,18,11,37,23.00
2015,07,18,11,38,23.00
2015,07,18,11,39,23.00
2015,07,18,11,40,23.00
2015,07,18,11,41,22.90
2015,07,18,11,42,22.80
2015,07,18,11,43,22.80
2015,07,18,11,44,22.80
2015,07,18,11,45,22.70
2015,07,18,11,46,22.80
2015,07,18,11,47,22.80
2015,07,18,11,48,22.90
2015,07,18,11,49,22.90
2015,07,18,11,50,22.90
2015,07,18,11,51,22.80
2015,07,18,11,52,22.90
2015,07,18,11,53,22.90
2015,07,18,11,54,23.00
2015,07,18,11,55,23.10
2015,07,18,11,56,23.10
2015,07,18,11,57,23.20
2015,07,18,11,58,23.20
2015,07,18,11,59,23.20
2015,07,18,12,00,23.20
2015,07,18,12,01,23.30
2015,07,18,12,02,23.30
2015,07,18,12,03,23.40
2015,07,18,12,04,23.30
2015,07,18,12,05,23.30
2015,07,18,12,06,23.30
2015,07,18,12,07,23.30
2015,07,18,12,08,23.30
2015,07,18,12,09,23.30
2015,07,18,12,10,23.30
2015,07,18,12,11,23.30
2015,07,18,12,12,23.30
2015,07,18,12,13,23.20
2015,07,18,12,14,23.20
2015,07,18,12,15,23.20
2015,07,18,12,16,23.30
2015,07,18,12,17,23.30
2015,07,18,12,18,23.30
2015,07,18,12,19,23.40
2015,07,18,12,20,23.30
2015,07,18,12,21,23.40
2015,07,18,12,22,23.40
2015,07,18,12,23,23.50
2015,07,18,12,24,23.60
2015,07,18,12,25,23.70
2015,07,18,12,26,23.60
2015,07,18,12,27,23.60
2015,07,18,12,28,23.60
2015,07,18,12,29,23.60
2015,07,18,12,30,23.70
2015,07,18,12,31,23.80
2015,07,18,12,32,23.80
2015,07,18,12,33,23.80
2015,07,18,12,34,23.80
2015,07,18,12,35,23.80
2015,07,18,12,36,23.70
2015,07,18,12,37,23.70
2015,07,18,12,38,23.60
2015,07,18,12,39,23.60
2015,07,18,12,40,23.60
2015,07,18,12,41,23.50
2015,07,18,12,42,23.50
2015,07,18,12,43,23.40
2015,07,18,12,44,23.30
2015,07,18,12,45,23.20
2015,07,18,12,46,23.20
2015,07,18,12,47,23.30
2015,07,18,12,48,23.30
2015,07,18,12,49,23.20
2015,07,18,12,50,23.10
2015,07,18,12,51,23.10
2015,07,18,12,52,23.10
2015,07,18,12,53,23.10
2015,07,18,12,54,23.20
2015,07,18,12,55,23.20
2015,07,18,12,56,23.20
2015,07,18,12,57,23.30
2015,07,18,12,58,23.30
2015,07,18,12,59,23.30
2015,07,18,13,00,23.50
2015,07,18,13,01,23.60
2015,07,18,13,02,23.60
2015,07,18,13,03,23.60
2015,07,18,13,04,23.60
2015,07,18,13,05,23.60
2015,07,18,13,06,23.70
2015,07,18,13,07,23.80
2015,07,18,13,08,23.80
2015,07,18,13,09,23.90
2015,07,18,13,10,24.10
2015,07,18,13,11,24.30
2015,07,18,13,12,24.40
2015,07,18,13,13,24.50
2015,07,18,13,14,24.50
2015,07,18,13,15,24.60
2015,07,18,13,16,24.60
2015,07,18,13,17,24.60
2015,07,18,13,18,24.60
2015,07,18,13,19,24.70
2015,07,18,13,20,24.80
2015,07,18,13,21,24.80
2015,07,18,13,22,24.90
2015,07,18,13,23,24.90
2015,07,18,13,24,24.90
2015,07,18,13,25,24.90
2015,07,18,13,26,24.90
2015,07,18,13,27,25.00
2015,07,18,13,28,25.10
2015,07,18,13,29,25.10
2015,07,18,13,30,25.10
2015,07,18,13,31,25.10
2015,07,18,13,32,25.00
2015,07,18,13,33,24.90
2015,07,18,13,34,24.90
2015,07,18,13,35,24.80
2015,07,18,13,36,24.80
2015,07,18,13,37,24.70
2015,07,18,13,38,24.60
2015,07,18,13,39,24.60
2015,07,18,13,40,24.60
2015,07,18,13,41,24.80
2015,07,18,13,42,24.90
2015,07,18,13,43,25.00
2015,07,18,13,44,25.00
2015,07,18,13,45,25.00
2015,07,18,13,46,25.10
2015,07,18,13,47,25.00
2015,07,18,13,48,24.90
2015,07,18,13,49,24.90
2015,07,18,13,50,24.80
2015,07,18,13,51,24.90
2015,07,18,13,52,25.00
2015,07,18,13,53,25.10
2015,07,18,13,54,25.00
2015,07,18,13,55,24.90
2015,07,18,13,56,24.70
2015,07,18,13,57,24.40
2015,07,18,13,58,24.30
2015,07,18,13,59,24.20
2015,07,18,14,00,24.20
2015,07,18,14,01,24.20
2015,07,18,14,02,24.10
2015,07,18,14,03,24.10
2015,07,18,14,04,24.10
2015,07,18,14,05,24.00
2015,07,18,14,06,24.00
2015,07,18,14,07,23.90
2015,07,18,14,08,23.90
2015,07,18,14,09,24.00
2015,07,18,14,10,24.10
2015,07,18,14,11,24.20
2015,07,18,14,12,24.40
2015,07,18,14,13,24.50
2015,07,18,14,14,24.50
2015,07,18,14,15,24.40
2015,07,18,14,16,24.40
2015,07,18,14,17,24.40
2015,07,18,14,18,24.40
2015,07,18,14,19,24.50
2015,07,18,14,20,24.60
2015,07,18,14,21,24.60
2015,07,18,14,22,24.60
2015,07,18,14,23,24.60
2015,07,18,14,24,24.60
2015,07,18,14,25,24.70
2015,07,18,14,26,24.70
2015,07,18,14,27,24.70
2015,07,18,14,28,24.70
2015,07,18,14,29,24.70
2015,07,18,14,30,24.80
2015,07,18,14,31,25.00
2015,07,18,14,32,25.20
2015,07,18,14,33,25.30
2015,07,18,14,34,25.40
2015,07,18,14,35,25.50
2015,07,18,14,36,25.60
2015,07,18,14,37,25.70
2015,07,18,14,38,25.80
2015,07,18,14,39,25.80
2015,07,18,14,40,25.70
2015,07,18,14,41,25.60
2015,07,18,14,42,25.60
2015,07,18,14,43,25.70
2015,07,18,14,44,25.70
2015,07,18,14,45,25.70
2015,07,18,14,46,25.80
2015,07,18,14,47,25.90
2015,07,18,14,48,25.90
2015,07,18,14,49,26.00
2015,07,18,14,50,26.10
2015,07,18,14,51,26.20
2015,07,18,14,52,26.30
2015,07,18,14,53,26.40
2015,07,18,14,54,26.50
2015,07,18,14,55,26.60
2015,07,18,14,56,26.60
2015,07,18,14,57,26.60
2015,07,18,14,58,26.60
2015,07,18,14,59,26.50
2015,07,18,15,00,26.60
2015,07,18,15,01,26.50
2015,07,18,15,02,26.60
2015,07,18,15,03,26.70
2015,07,18,15,04,26.70
2015,07,18,15,05,26.60
2015,07,18,15,06,26.50
2015,07,18,15,07,26.40
2015,07,18,15,08,26.40
2015,07,18,15,09,26.40
2015,07,18,15,10,26.40
2015,07,18,15,11,26.50
2015,07,18,15,12,26.60
2015,07,18,15,13,26.70
2015,07,18,15,14,26.80
2015,07,18,15,15,26.80
2015,07,18,15,16,26.80
2015,07,18,15,17,26.80
2015,07,18,15,18,27.00
2015,07,18,15,19,27.10
2015,07,18,15,20,27.30
2015,07,18,15,21,27.40
2015,07,18,15,22,27.50
2015,07,18,15,23,27.60
2015,07,18,15,24,27.70
2015,07,18,15,25,27.70
2015,07,18,15,26,27.70
2015,07,18,15,27,27.70
2015,07,18,15,28,27.70
2015,07,18,15,29,27.60
2015,07,18,15,30,27.50
2015,07,18,15,31,27.50
2015,07,18,15,32,27.40
2015,07,18,15,33,27.40
2015,07,18,15,34,27.40
2015,07,18,15,35,27.50
2015,07,18,15,36,27.50
2015,07,18,15,37,27.50
2015,07,18,15,38,27.50
2015,07,18,15,39,27.60
2015,07,18,15,40,27.70
2015,07,18,15,41,27.80
2015,07,18,15,42,27.90
2015,07,18,15,43,28.00
2015,07,18,15,44,28.10
2015,07,18,15,45,28.10
2015,07,18,15,46,28.00
2015,07,18,15,47,28.00
2015,07,18,15,48,27.90
2015,07,18,15,49,27.80
2015,07,18,15,50,27.70
2015,07,18,15,51,27.60
2015,07,18,15,52,27.50
2015,07,18,15,53,27.50
2015,07,18,15,54,27.50
2015,07,18,15,55,27.60
2015,07,18,15,56,27.60
2015,07,18,15,57,27.70
2015,07,18,15,58,27.70
2015,07,18,15,59,27.80
2015,07,18,16,00,27.90
2015,07,18,16,01,28.00
2015,07,18,16,02,28.10
2015,07,18,16,03,28.10
2015,07,18,16,04,28.10
2015,07,18,16,05,28.20
2015,07,18,16,06,28.30
2015,07,18,16,07,28.40
2015,07,18,16,08,28.60
2015,07,18,16,09,28.80
2015,07,18,16,10,29.00
2015,07,18,16,11,29.20
2015,07,18,16,12,29.30
2015,07,18,16,13,29.40
2015,07,18,16,14,29.40
2015,07,18,16,15,29.30
2015,07,18,16,16,29.20
2015,07,18,16,17,29.10
2015,07,18,16,18,29.00
2015,07,18,16,19,28.90
2015,07,18,16,20,28.80
2015,07,18,16,21,28.70
2015,07,18,16,22,28.60
2015,07,18,16,23,28.50
2015,07,18,16,24,28.40
2015,07,18,16,25,28.40
2015,07,18,16,26,28.30
2015,07,18,16,27,28.30
2015,07,18,16,28,28.30
2015,07,18,16,29,28.30
2015,07,18,16,30,28.40
2015,07,18,16,31,28.40
2015,07,18,16,32,28.50
2015,07,18,16,33,28.50
2015,07,18,16,34,28.60
2015,07,18,16,35,28.60
2015,07,18,16,36,28.70
2015,07,18,16,37,28.80
2015,07,18,16,38,28.80
2015,07,18,16,39,29.00
2015,07,18,16,40,29.10
2015,07,18,16,41,29.20
2015,07,18,16,42,29.20
2015,07,18,16,43,29.20
2015,07,18,16,44,29.00
2015,07,18,16,45,29.00
2015,07,18,16,46,28.90
2015,07,18,16,47,28.80
2015,07,18,16,48,28.70
2015,07,18,16,49,28.70
2015,07,18,16,50,28.70
2015,07,18,16,51,28.70
2015,07,18,16,52,28.60
2015,07,18,16,53,28.60
2015,07,18,16,54,28.50
2015,07,18,16,55,28.50
2015,07,18,16,56,28.50
2015,07,18,16,57,28.60
2015,07,18,16,58,28.50
2015,07,18,16,59,28.50
2015,07,18,17,00,28.60
2015,07,18,17,01,28.60
2015,07,18,17,02,28.60
2015,07,18,17,03,28.70
2015,07,18,17,04,28.70
2015,07,18,17,05,28.70
2015,07,18,17,06,28.70
2015,07,18,17,07,28.80
2015,07,18,17,08,28.70
2015,07,18,17,09,28.70
2015,07,18,17,10,28.70
2015,07,18,17,11,28.70
2015,07,18,17,12,28.70
2015,07,18,17,13,28.70
2015,07,18,17,14,28.70
2015,07,18,17,15,28.70
2015,07,18,17,16,28.70
2015,07,18,17,17,28.60
2015,07,18,17,18,28.60
2015,07,18,17,19,28.60